Regional Weather Roundup
Issued by NWS Charleston, SC

Current Version | Previous Version | Text Only | Print | Product List | Glossary Off
Versions: 1 2 3 4 5 6 7 8 9 10 11 12 13 14 15 16 17 18 19 20 21 22 23 24 25 26 27 28 29 30 31 32 33 34 35 36 37 38 39 40 41 42 43 44 45 46 47 48 49 50

484
ASUS42 KCHS 200912
RWRCHS

REGIONAL WEATHER ROUNDUP
NATIONAL WEATHER SERVICE CHARLESTON SC
400 AM EST FRI JAN 20 2017

NOTE: "FAIR" INDICATES FEW OR NO CLOUDS BELOW 12,000 FEET WITH NO
SIGNIFICANT WEATHER AND/OR OBSTRUCTIONS TO VISIBILITY.

NOT ALL STATIONS ARE QUALITY CONTROLLED. USE DATA WITH CAUTION...
ESPECIALLY DEWPOINT OBSERVATIONS.

SCZ027-030-031-034>040-042>050-201000-
...SOUTHEAST SOUTH CAROLINA...

CITY           SKY/WX    TMP DP  RH WIND       PRES   REMARKS
N CHARLESTON   CLOUDY    58  54  86 SE5       29.92F
WATERFRONT PRK   N/A     58  56  92 CALM      29.92F
MOUNT PLEASANT LGT RAIN  55  55 100 CALM      29.93F
JOHNS ISLAND   PTSUNNY   59  55  88 CALM      29.94S
PINOPOLIS        N/A     55  54  94 SE5       29.84F
MONCKS CORNER  FAIR      52  50  93 CALM      29.92F
SUMMERVILLE    FAIR      59  59 100 CALM      29.93F
BEAUFORT MCAS  MOCLDY    59  57  93 CALM      29.93S
BEAUFORT ARPT  FAIR      57  55  94 S3        29.93S
HILTON HEAD IS CLOUDY    59  59 100 S5        29.93F
WALTERBORO     CLOUDY    54  54 100 CALM      29.93S
ALLENDALE      PTSUNNY   59  57  94 S5        29.90F

...SOUTHERN MIDLANDS AND PEE DEE...

CITY           SKY/WX    TMP DP  RH WIND       PRES   REMARKS
GEORGETOWN     FAIR      50  50 100 CALM      29.94F
KINGSTREE      FAIR      52  48  87 E5        29.92F
ORANGEBURG     CLOUDY    57  53  86 S3        29.91F
BARNWELL       PTSUNNY   63  59  88 S6        29.90F
AIKEN          FAIR      57  54  88 S9        29.91F
MANNING        FAIR      52  43  71 CALM      29.92F
COLUMBIA       CLOUDY    57  52  83 E3        29.89F
SUMTER         CLOUDY    53  48  83 CALM      29.88F
FLORENCE       MOCLDY    51  49  92 E5        29.92F
MYRTLE BEACH   CLOUDY    57  50  77 E6        29.95F
N MYRTLE BEACH CLOUDY    57  51  80 E6        29.93F

$$

GAZ063-065-086>088-099>101-113>116-118-119-134>141-150-201000-
...SOUTHEAST GEORGIA...

CITY           SKY/WX    TMP DP  RH WIND       PRES   REMARKS
SAVANNAH ARPT  CLOUDY    59  56  89 S5        29.93F
HUNTER AAF     CLOUDY    60  60 100 CALM      29.91F
FORT STEWART   CLOUDY    58  55  92 CALM      29.89F
STATESBORO     CLOUDY    61  59  93 S3        29.90F
SYLVANIA       CLOUDY   N/A N/A N/A S3        29.91F
CLAXTON        PTSUNNY  N/A N/A N/A CALM      29.91F

...CSRA...CENTRAL AND FAR SOUTHEAST GEORGIA...

CITY           SKY/WX    TMP DP  RH WIND       PRES   REMARKS
THOMSON        CLOUDY    65  63  93 S5        29.87F
AUGUSTA-BUSH   LGT RAIN  62  57  83 S9        29.87F
AUGUSTA-DANIEL LGT RAIN  60  55  83 SE8       29.87F
SWAINSBORO     FAIR      61  61 100 SE6       29.88F
VIDALIA        CLOUDY    63  63 100 S5        29.89F
EASTMAN        LGT RAIN  64  64  98 CALM      29.89F
HAZLEHURST     CLOUDY    65  65 100 S7        29.88F
ALMA           CLOUDY    63  63 100 S6        29.91F
WAYCROSS       CLOUDY    66  66 100 SW7       29.94S
JESUP          FAIR      61  57  88 CALM      29.93F
BAXLEY         FAIR      63  63 100 S5        29.91F
BRUNSWICK      CLOUDY    64  63  94 S5        29.94F
SAINT SIMONS   CLOUDY    65  61  87 S5        29.93F

$$

SCZ027-028-034-036>038-045-046-048>050-GAZ119-141-201000-
...LAKE AND SUPPLEMENTAL COASTAL OBSERVATIONS...

STATION/POSITION TIME  TEMP    WIND        PRES    WAVE   SWELL
                       AIR SEA DIR/SP/G            HT/PER HT/PER/DIR
                 (UTC) (F)     (DEG/KT/KT) (MB)    (FT/S) (FT/S/D)
WINYAH BAY       0745   56      60/  4     1014.0
LAKE MURRAY      0820   57     150/  8/  9 1011.9
ACE BASIN NERRS  0745   56        CALM     1014.0
FORT PULASKI     0848   58 58  150/  1/  2 1013.6F
SAPELO ISLAND    0800   62     170/  4     1014.0

$$

ANZ835-935-AMZ111-154-330-350-352-354-370-450-454-472-201000-
...C-MAN AND BUOY OBSERVATIONS...

STATION/POSITION TIME  TEMP    WIND        PRES    WAVE   SWELL
                       AIR SEA DIR/SP/G            HT/PER HT/PER/DIR
                 (UTC) (F)     (DEG/KT/KT) (MB)    (FT/S) (FT/S/D)
BUOY 41004       0750   69 72   20/  4/  6 1013.5    3/ 9   2/100/ 9
BUOY 41008       0750   61 60  180/  4/  4 1013.6    2/10   2/ 50/10
FOLLY BEACH CMAN 0800   57      80/  5/  6 1013.8F
CAPERS NEARSHORE 0808   56 55   90/  6/  8 1013.1F
FRIPP NEARSHORE  0808   59 58  230/  2/  4 1013.5R


STATION/POSITION TIME  TEMP    WIND        PRES    WAVE   SWELL
                       AIR SEA DIR/SP/G            HT/PER HT/PER/DIR
                 (UTC) (F)     (DEG/KT/KT) (MB)    (FT/S) (FT/S/D)
5E ST. MARYS GA  0830      64                N/A     1/11
FRYING PAN BUOY  0850   68 71  100/ 10/ 12 1013.5F   3/10   2/ 80/10
BUOY 41025       0850   58 76   40/  2/  8 1016.2R   6/11   5/ 70/11
CAPE LOOKOUT NC  0800   54     360/  4/  5 1015.4R
BUOY 41002       0850   67 71   CALM  /  2 1015.5R   5/ 9   5/ 10/ 9
BUOY 41010       NOT AVBL
ST AUGUSTINE FL  0900   62 62  230/  5/  6 1015.1F


$$




USA.gov is the U.S. government's official web portal to all federal, state and local government web resources and services.